Torna al catalogo

STARLINK-3513

AttivoComunicazioniVLEO
NORAD 51756·PAYLOAD·🇺🇸 United States

Lanciato Feb 21, 2022 da Cape Canaveral Space Force Station

Loading…

Prossimi Passaggi (prossime 24 ore)

TLE

AggiornatoSource: CelesTrak SupGP

Epoca: Sep 14, 2026, 21:52 UTC

1 51756C 22016AU  26257.91159722 -.00050769  00000+0 -15407-2 0  2577
2 51756  53.1580 165.9467 0001472  89.8736 152.1836 15.33570295    18

Traccia STARLINK-3513 in tempo reale con AllMySat

Download on the App Store